Miscellaneous Local Product
Issued by NWS Hastings, NE

Home | Current Version | Previous Version | Text Only | Print | Product List | Glossary On
Versions: 1 2 3 4 5 6 7 8 9 10 11 12 13 14 15 16 17 18 19 20 21 22 23 24 25 26 27 28 29 30 31 32 33 34 35 36 37 38 39 40 41 42 43 44 45 46 47 48 49 50
000
AXUS43 KGID 301902
MISGRI

GID CWA HOURLY WEATHER ROUNDUP
NATIONAL WEATHER SERVICE HASTINGS NE
200 PM CDT THU JUL 30 2015

NOTE: "FAIR" INDICATES FEW OR NO CLOUDS BELOW 12,000 FEET WITH NO
SIGNIFICANT WEATHER AND/OR OBSTRUCTIONS TO VISIBILITY.

...SOUTH CENTRAL NEBRASKA...

CITY           SKY/WX    TMP DP  RH WIND       PRES   REMARKS
GRAND ISLAND   SUNNY     86  57  37 SW12      30.23F
HASTINGS       SUNNY     85  65  51 SW9       30.22F
KEARNEY        SUNNY     84  64  51 S10       30.22F
ORD            SUNNY     87  61  41 S8        30.20F
YORK           SUNNY     84  59  42 SW12      30.22F
AURORA         SUNNY     84  64  50 SW7       30.21F
LEXINGTON      SUNNY     85  64  48 SW6       30.24S
HOLDREGE       SUNNY     83  62  49 S9        30.23F
HEBRON         SUNNY     85  56  37 S8        30.21F

...NEBRASKA PANHANDLE...

CITY           SKY/WX    TMP DP  RH WIND       PRES   REMARKS
CHADRON        SUNNY     87  44  22 VRB6      30.26F
ALLIANCE       SUNNY     88  51  28 NE12      30.27F
SCOTTSBLUFF    SUNNY     84  57  39 VRB6      30.28F
SIDNEY         SUNNY     86  55  34 S8        30.30F

...WESTERN AND NORTH CENTRAL NEBRASKA...

CITY           SKY/WX    TMP DP  RH WIND       PRES   REMARKS
VALENTINE      SUNNY     90  40  17 VRB5      30.21S
AINSWORTH      SUNNY     87  54  31 W5        30.22S
ONEILL         SUNNY     86  56  36 SW5       30.21F
BROKEN BOW     MOSUNNY   87  63  44 SW10      30.23F
IMPERIAL       MOSUNNY   88  59  37 S10       30.25F
NORTH PLATTE   SUNNY     87  57  35 SW8       30.23F
MCCOOK         SUNNY     88  61  40 SE10      30.23F

...EASTERN NEBRASKA...

CITY           SKY/WX    TMP DP  RH WIND       PRES   REMARKS
NORFOLK        SUNNY     86  58  38 SW12      30.18F
SO SIOUX CITY  SUNNY     85  66  53 W13       30.16F
TEKAMAH        MOSUNNY   86  65  49 SW10      30.18F
COLUMBUS       SUNNY     86  55  35 SW12      30.20F
ALBION         SUNNY     85  56  37 SW9       30.21F
OMAHA EPPLEY   MOSUNNY   88  57  34 SW9       30.18F
OFFUTT AFB     SUNNY     87  60  40 W8        30.18F
MILLARD        SUNNY     85  63  47 SW6       30.19F
LINCOLN        SUNNY     90  55  30 SW10      30.20F
NEBRASKA CITY  SUNNY     84  55  36 SW12      30.20F
BEATRICE       SUNNY     85  60  42 S12       30.21F
FALLS CITY     MOSUNNY   86  62  44 SW9       30.19F

...NORTHERN KANSAS...

CITY           SKY/WX    TMP DP  RH WIND       PRES   REMARKS
GOODLAND       SUNNY     85  60  42 S5        30.28F
HILL CITY      PTSUNNY   86  67  52 S9        30.23F
NORTON         PTCLDY    82  61  47 S9        30.23S
PHILLIPSBURG   SUNNY     88  66  48 SE7       30.22F HX  90
SMITH CENTER   SUNNY     84  63  48 SE13      30.21F
HAYS           FAIR      82  64  54 S8        30.22F
RUSSELL        PTSUNNY   83  69  62 VRB5      30.21F
CONCORDIA      MOSUNNY   84  64  50 SE7       30.21F
SALINA         MOSUNNY   84  69  60 SE6       30.21F
TOPEKA         MOSUNNY   84  61  45 S7        30.21F



USA.gov is the U.S. government's official web portal to all federal, state and local government web resources and services.